Hourly Weather Masty

Today, 26 September, Saturday

Time Temperature Precipitation Wind Pressure Humidity
00:00 +17°C° 0 mm 5 mps 741 mmHg 77%
01:00 +17°C° 0 mm 5 mps 741 mmHg 79%
02:00 +16°C° 0 mm 5 mps 741 mmHg 81%
03:00 +16°C° 0 mm 5 mps 741 mmHg 81%
04:00 +16°C° 0 mm 5 mps 740 mmHg 81%
05:00 +15°C° 0 mm 5 mps 740 mmHg 81%
06:00 +16°C° 0 mm 6 mps 740 mmHg 79%
07:00 +16°C° 0 mm 6 mps 740 mmHg 78%
08:00 +17°C° 0 mm 7 mps 740 mmHg 76%
09:00 +20°C° 0 mm 8 mps 740 mmHg 69%
10:00 +21°C° 0 mm 8 mps 741 mmHg 63%
11:00 +23°C° 0 mm 9 mps 741 mmHg 56%
12:00 +24°C° 0 mm 9 mps 741 mmHg 54%
13:00 +24°C° 0 mm 9 mps 740 mmHg 52%
14:00 +26°C° 0 mm 9 mps 740 mmHg 50%
15:00 +24°C° 0 mm 8 mps 740 mmHg 54%
16:00 +23°C° 0 mm 7 mps 740 mmHg 58%
17:00 +23°C° 0 mm 6 mps 740 mmHg 62%
18:00 +22°C° 0 mm 6 mps 740 mmHg 61%
19:00 +22°C° 0 mm 7 mps 741 mmHg 60%
20:00 +21°C° 0 mm 7 mps 741 mmHg 59%
21:00 +21°C° 0 mm 7 mps 741 mmHg 58%
22:00 +20°C° 0 mm 7 mps 741 mmHg 57%
23:00 +20°C° 0 mm 7 mps 741 mmHg 56%

Tomorrow, 27 September, Sunday

Time Temperature Precipitation Wind Pressure Humidity
00:00 +20°C° 0 mm 7 mps 741 mmHg 57%
01:00 +20°C° 0 mm 7 mps 741 mmHg 58%
02:00 +18°C° 0 mm 7 mps 741 mmHg 59%
03:00 +18°C° 0 mm 8 mps 741 mmHg 59%
04:00 +18°C° 0 mm 8 mps 741 mmHg 60%
05:00 +17°C° 0 mm 8 mps 740 mmHg 61%
06:00 +17°C° 0 mm 8 mps 741 mmHg 59%
07:00 +17°C° 0 mm 8 mps 741 mmHg 57%
08:00 +17°C° 0 mm 8 mps 741 mmHg 55%
09:00 +17°C° 0 mm 8 mps 741 mmHg 53%
10:00 +18°C° 0 mm 9 mps 741 mmHg 52%
11:00 +19°C° 0 mm 9 mps 741 mmHg 50%
12:00 +19°C° 0.1 mm 9 mps 741 mmHg 54%
13:00 +19°C° 0.1 mm 9 mps 741 mmHg 57%
14:00 +20°C° 0.1 mm 8 mps 741 mmHg 61%
15:00 +18°C° 0.2 mm 8 mps 741 mmHg 68%
16:00 +16°C° 0.2 mm 8 mps 742 mmHg 76%
17:00 +15°C° 0.2 mm 8 mps 742 mmHg 83%
18:00 +14°C° 0.1 mm 7 mps 743 mmHg 82%
19:00 +13°C° 0.1 mm 6 mps 744 mmHg 82%
20:00 +10°C° 0.1 mm 5 mps 745 mmHg 82%
21:00 +10°C° 0 mm 5 mps 746 mmHg 82%
22:00 +11°C° 0 mm 4 mps 747 mmHg 83%
23:00 +10°C° 0 mm 4 mps 747 mmHg 83%

Day after tomorrow, 28 September, Monday

Time Temperature Precipitation Wind Pressure Humidity
00:00 +10°C° 0 mm 4 mps 748 mmHg 85%
01:00 +10°C° 0 mm 4 mps 748 mmHg 86%
02:00 +10°C° 0 mm 3 mps 748 mmHg 88%
03:00 +8°C° 0 mm 4 mps 749 mmHg 89%
04:00 +8°C° 0 mm 4 mps 749 mmHg 90%
05:00 +7°C° 0 mm 4 mps 750 mmHg 91%
06:00 +8°C° 0 mm 4 mps 750 mmHg 87%
07:00 +8°C° 0 mm 4 mps 750 mmHg 84%
08:00 +10°C° 0 mm 4 mps 751 mmHg 81%
09:00 +12°C° 0 mm 4 mps 751 mmHg 74%
10:00 +14°C° 0 mm 4 mps 751 mmHg 66%
11:00 +15°C° 0 mm 5 mps 751 mmHg 58%
12:00 +16°C° 0 mm 5 mps 751 mmHg 56%
13:00 +16°C° 0 mm 5 mps 751 mmHg 54%
14:00 +17°C° 0 mm 5 mps 751 mmHg 52%
15:00 +17°C° 0 mm 4 mps 751 mmHg 56%
16:00 +15°C° 0 mm 4 mps 751 mmHg 60%
17:00 +16°C° 0 mm 3 mps 751 mmHg 63%
18:00 +14°C° 0 mm 4 mps 751 mmHg 64%
19:00 +14°C° 0 mm 4 mps 751 mmHg 65%
20:00 +13°C° 0 mm 5 mps 750 mmHg 66%
21:00 +14°C° 0.1 mm 5 mps 750 mmHg 69%
22:00 +14°C° 0.1 mm 6 mps 750 mmHg 73%
23:00 +14°C° 0.1 mm 6 mps 750 mmHg 76%

29 September, Tuesday

Time Temperature Precipitation Wind Pressure Humidity
00:00 +14°C° 0 mm 6 mps 750 mmHg 77%
01:00 +14°C° 0 mm 6 mps 749 mmHg 77%
02:00 +14°C° 0 mm 6 mps 749 mmHg 77%
03:00 +14°C° 0 mm 5 mps 749 mmHg 76%
04:00 +14°C° 0 mm 4 mps 749 mmHg 74%
05:00 +14°C° 0 mm 4 mps 748 mmHg 73%
06:00 +14°C° 0.1 mm 4 mps 748 mmHg 74%
07:00 +13°C° 0.1 mm 5 mps 748 mmHg 76%
08:00 +13°C° 0.1 mm 5 mps 748 mmHg 77%
09:00 +14°C° 0 mm 5 mps 747 mmHg 76%
10:00 +14°C° 0 mm 5 mps 747 mmHg 75%
11:00 +15°C° 0 mm 5 mps 747 mmHg 74%
12:00 +15°C° 0.1 mm 5 mps 747 mmHg 75%
13:00 +15°C° 0.1 mm 4 mps 747 mmHg 76%
14:00 +17°C° 0.1 mm 4 mps 746 mmHg 77%
15:00 +15°C° 0.1 mm 4 mps 746 mmHg 80%
16:00 +14°C° 0.1 mm 4 mps 746 mmHg 83%
17:00 +14°C° 0.1 mm 4 mps 746 mmHg 85%
18:00 +14°C° 0.2 mm 4 mps 746 mmHg 88%
19:00 +13°C° 0.2 mm 3 mps 745 mmHg 90%
20:00 +14°C° 0.2 mm 2 mps 745 mmHg 92%
21:00 +14°C° 0 mm 2 mps 745 mmHg 93%
22:00 +14°C° 0 mm 2 mps 745 mmHg 94%
23:00 +14°C° 0 mm 1 mps 744 mmHg 94%

30 September, Wednesday

Time Temperature Precipitation Wind Pressure Humidity
00:00 +14°C° 0.1 mm 1 mps 744 mmHg 95%
01:00 +13°C° 0.1 mm 1 mps 744 mmHg 95%
02:00 +13°C° 0.1 mm 1 mps 743 mmHg 96%
03:00 +12°C° 0.3 mm 0 mps 743 mmHg 96%
04:00 +12°C° 0.3 mm 0 mps 743 mmHg 96%
05:00 +12°C° 0.3 mm 0 mps 743 mmHg 97%
06:00 +12°C° 0.2 mm 0 mps 743 mmHg 96%
07:00 +13°C° 0.2 mm 1 mps 743 mmHg 96%
08:00 +13°C° 0.2 mm 1 mps 743 mmHg 95%
09:00 +14°C° 0.1 mm 1 mps 743 mmHg 93%
10:00 +14°C° 0.1 mm 1 mps 743 mmHg 90%
11:00 +15°C° 0.1 mm 1 mps 743 mmHg 88%
12:00 +15°C° 0.1 mm 2 mps 743 mmHg 87%
13:00 +15°C° 0.1 mm 2 mps 743 mmHg 87%
14:00 +14°C° 0.1 mm 3 mps 744 mmHg 86%
15:00 +14°C° 0.1 mm 3 mps 744 mmHg 87%
16:00 +15°C° 0.1 mm 2 mps 744 mmHg 89%
17:00 +14°C° 0.1 mm 2 mps 744 mmHg 90%
18:00 +14°C° 0 mm 2 mps 744 mmHg 91%
19:00 +12°C° 0 mm 3 mps 744 mmHg 92%
20:00 +11°C° 0 mm 3 mps 745 mmHg 94%
21:00 +11°C° 0 mm 3 mps 745 mmHg 94%
22:00 +10°C° 0 mm 3 mps 745 mmHg 95%
23:00 +9°C° 0 mm 2 mps 745 mmHg 95%

1 October, Thursday

Time Temperature Precipitation Wind Pressure Humidity
00:00 +9°C° 0 mm 3 mps 745 mmHg 95%
01:00 +9°C° 0 mm 3 mps 745 mmHg 95%
02:00 +9°C° 0 mm 3 mps 745 mmHg 95%
03:00 +8°C° 0 mm 3 mps 745 mmHg 95%
04:00 +8°C° 0 mm 3 mps 745 mmHg 96%
05:00 +8°C° 0 mm 3 mps 745 mmHg 96%
06:00 +9°C° 0 mm 3 mps 745 mmHg 94%
07:00 +9°C° 0 mm 3 mps 745 mmHg 92%
08:00 +10°C° 0 mm 3 mps 745 mmHg 90%
09:00 +11°C° 0 mm 3 mps 745 mmHg 84%
10:00 +13°C° 0 mm 3 mps 745 mmHg 78%
11:00 +15°C° 0 mm 4 mps 745 mmHg 71%
12:00 +15°C° 0 mm 4 mps 745 mmHg 68%
13:00 +17°C° 0 mm 4 mps 745 mmHg 66%
14:00 +18°C° 0 mm 4 mps 745 mmHg 63%
15:00 +17°C° 0.1 mm 3 mps 745 mmHg 67%
16:00 +16°C° 0.1 mm 3 mps 745 mmHg 71%
17:00 +16°C° 0.1 mm 2 mps 746 mmHg 75%
18:00 +14°C° 0 mm 2 mps 746 mmHg 80%
19:00 +13°C° 0 mm 2 mps 746 mmHg 85%
20:00 +12°C° 0 mm 2 mps 747 mmHg 90%
21:00 +12°C° 0 mm 2 mps 747 mmHg 92%
22:00 +12°C° 0 mm 2 mps 747 mmHg 94%
23:00 +10°C° 0 mm 2 mps 748 mmHg 95%
Show more